Tracking 35036 objects as of 15-Aug-2026
HD Live streaming from Space Station
objects crossing your sky now

RASSVET-3 28

Track RASSVET-3 28 now!
10-day predictions


NORAD ID: 100094
Int'l Code: 2026-165M
Launch date: July 19, 2026
Source: Commonwealth of Independent States (former USSR) (CIS)
Launch site: PLESETSK MISSILE AND SPACE COMPLEX (PKMTR)
Your satellite tracking list
Your tracking list is empty




NASA's NSSDC Master Catalog

Two Line Element Set (TLE):
1 A0094U 26165M   26227.37659546  .00039643  00000-0  19559-3 0  9994
2 A0094  82.2994 201.0961 0008801 341.6344  18.4604 15.81864712  4202
Source of the keplerian elements: AFSPC